BEIDOU-3 M14

Last updated on May 15, 2019, 3:07 a.m. UTC

1 43623U 18072B   19134.18003174  .00000095  00000-0  00000+0 0  9991
2 43623  55.0228 149.3905 0007468 299.6836 131.3879  1.86231900  4401
UTC
Height (km)
Latitude
Longitude
Inclination
Orbital Period
UTC large
Height (km)
Speed (km/s)
/
Latitude / Longitude
Inclination (degrees)
Orbital Period (minutes)
Azimuth
Elevation
Range (km)
Doppler Factor
iOS Compass Heading
iOS Angle

Next 30 passes for location: Hong Kong

Rise time Rise Azimuth (degrees) Set time Set Azimuth (degrees) Duration Max altitude (degrees)

No matching passes for this satellites